Year,Month,Day,Hour,Minute,Value (Times are PST for temperature in C)
2013,06,03,00,00,13.30
2013,06,03,00,01,13.30
2013,06,03,00,02,13.30
2013,06,03,00,03,13.30
2013,06,03,00,04,13.30
2013,06,03,00,05,13.30
2013,06,03,00,06,13.30
2013,06,03,00,07,13.30
2013,06,03,00,08,13.30
2013,06,03,00,09,13.30
2013,06,03,00,10,13.30
2013,06,03,00,11,13.30
2013,06,03,00,12,13.30
2013,06,03,00,13,13.30
2013,06,03,00,14,13.30
2013,06,03,00,15,13.30
2013,06,03,00,16,13.30
2013,06,03,00,17,13.30
2013,06,03,00,18,13.20
2013,06,03,00,19,13.20
2013,06,03,00,20,13.20
2013,06,03,00,21,13.10
2013,06,03,00,22,13.10
2013,06,03,00,23,13.10
2013,06,03,00,24,13.00
2013,06,03,00,25,13.00
2013,06,03,00,26,13.00
2013,06,03,00,27,13.00
2013,06,03,00,28,12.90
2013,06,03,00,29,12.90
2013,06,03,00,30,12.90
2013,06,03,00,31,12.90
2013,06,03,00,32,12.90
2013,06,03,00,33,12.80
2013,06,03,00,34,12.80
2013,06,03,00,35,12.80
2013,06,03,00,36,12.80
2013,06,03,00,37,12.80
2013,06,03,00,38,12.80
2013,06,03,00,39,12.70
2013,06,03,00,40,12.70
2013,06,03,00,41,12.70
2013,06,03,00,42,12.60
2013,06,03,00,43,12.60
2013,06,03,00,44,12.60
2013,06,03,00,45,12.70
2013,06,03,00,46,12.60
2013,06,03,00,47,12.60
2013,06,03,00,48,12.60
2013,06,03,00,49,12.60
2013,06,03,00,50,12.60
2013,06,03,00,51,12.60
2013,06,03,00,52,12.60
2013,06,03,00,53,12.60
2013,06,03,00,54,12.60
2013,06,03,00,55,12.60
2013,06,03,00,56,12.60
2013,06,03,00,57,12.50
2013,06,03,00,58,12.50
2013,06,03,00,59,12.50
2013,06,03,01,00,12.50
2013,06,03,01,01,12.50
2013,06,03,01,02,12.50
2013,06,03,01,03,12.50
2013,06,03,01,04,12.50
2013,06,03,01,05,12.50
2013,06,03,01,06,12.50
2013,06,03,01,07,12.40
2013,06,03,01,08,12.40
2013,06,03,01,09,12.40
2013,06,03,01,10,12.40
2013,06,03,01,11,12.40
2013,06,03,01,12,12.40
2013,06,03,01,13,12.40
2013,06,03,01,14,12.40
2013,06,03,01,15,12.30
2013,06,03,01,16,12.30
2013,06,03,01,17,12.30
2013,06,03,01,18,12.30
2013,06,03,01,19,12.30
2013,06,03,01,20,12.30
2013,06,03,01,21,12.30
2013,06,03,01,22,12.30
2013,06,03,01,23,12.30
2013,06,03,01,24,12.30
2013,06,03,01,25,12.30
2013,06,03,01,26,12.30
2013,06,03,01,27,12.30
2013,06,03,01,28,12.30
2013,06,03,01,29,12.30
2013,06,03,01,30,12.30
2013,06,03,01,31,12.30
2013,06,03,01,32,12.30
2013,06,03,01,33,12.30
2013,06,03,01,34,12.30
2013,06,03,01,35,12.20
2013,06,03,01,36,12.20
2013,06,03,01,37,12.20
2013,06,03,01,38,12.20
2013,06,03,01,39,12.20
2013,06,03,01,40,12.20
2013,06,03,01,41,12.20
2013,06,03,01,42,12.10
2013,06,03,01,43,12.10
2013,06,03,01,44,12.10
2013,06,03,01,45,12.10
2013,06,03,01,46,12.00
2013,06,03,01,47,12.00
2013,06,03,01,48,12.00
2013,06,03,01,49,11.90
2013,06,03,01,50,11.90
2013,06,03,01,51,11.90
2013,06,03,01,52,11.90
2013,06,03,01,53,11.90
2013,06,03,01,54,11.90
2013,06,03,01,55,11.80
2013,06,03,01,56,11.80
2013,06,03,01,57,11.80
2013,06,03,01,58,11.80
2013,06,03,01,59,11.80
2013,06,03,02,00,11.80
2013,06,03,02,01,11.80
2013,06,03,02,02,11.80
2013,06,03,02,03,11.80
2013,06,03,02,04,11.70
2013,06,03,02,05,11.70
2013,06,03,02,06,11.70
2013,06,03,02,07,11.70
2013,06,03,02,08,11.70
2013,06,03,02,09,11.70
2013,06,03,02,10,11.60
2013,06,03,02,11,11.60
2013,06,03,02,12,11.60
2013,06,03,02,13,11.60
2013,06,03,02,14,11.60
2013,06,03,02,15,11.60
2013,06,03,02,16,11.60
2013,06,03,02,17,11.60
2013,06,03,02,18,11.60
2013,06,03,02,19,11.60
2013,06,03,02,20,11.40
2013,06,03,02,21,11.40
2013,06,03,02,22,11.40
2013,06,03,02,23,11.40
2013,06,03,02,24,11.40
2013,06,03,02,25,11.40
2013,06,03,02,26,11.40
2013,06,03,02,27,11.40
2013,06,03,02,28,11.40
2013,06,03,02,29,11.40
2013,06,03,02,30,11.40
2013,06,03,02,31,11.40
2013,06,03,02,32,11.40
2013,06,03,02,33,11.40
2013,06,03,02,34,11.40
2013,06,03,02,35,11.40
2013,06,03,02,36,11.30
2013,06,03,02,37,11.30
2013,06,03,02,38,11.30
2013,06,03,02,39,11.30
2013,06,03,02,40,11.30
2013,06,03,02,41,11.30
2013,06,03,02,42,11.30
2013,06,03,02,43,11.30
2013,06,03,02,44,11.30
2013,06,03,02,45,11.30
2013,06,03,02,46,11.30
2013,06,03,02,47,11.30
2013,06,03,02,48,11.20
2013,06,03,02,49,11.20
2013,06,03,02,50,11.20
2013,06,03,02,51,11.20
2013,06,03,02,52,11.10
2013,06,03,02,53,11.10
2013,06,03,02,54,11.20
2013,06,03,02,55,11.20
2013,06,03,02,56,11.20
2013,06,03,02,57,11.20
2013,06,03,02,58,11.20
2013,06,03,02,59,11.20
2013,06,03,03,00,11.20
2013,06,03,03,01,11.10
2013,06,03,03,02,11.10
2013,06,03,03,03,11.10
2013,06,03,03,04,11.20
2013,06,03,03,05,11.20
2013,06,03,03,06,11.20
2013,06,03,03,07,11.20
2013,06,03,03,08,11.20
2013,06,03,03,09,11.20
2013,06,03,03,10,11.20
2013,06,03,03,11,11.20
2013,06,03,03,12,11.20
2013,06,03,03,13,11.20
2013,06,03,03,14,11.10
2013,06,03,03,15,11.10
2013,06,03,03,16,11.10
2013,06,03,03,17,11.10
2013,06,03,03,18,11.10
2013,06,03,03,19,11.10
2013,06,03,03,20,11.10
2013,06,03,03,21,11.10
2013,06,03,03,22,11.10
2013,06,03,03,23,11.10
2013,06,03,03,24,11.10
2013,06,03,03,25,11.10
2013,06,03,03,26,11.10
2013,06,03,03,27,11.10
2013,06,03,03,28,10.90
2013,06,03,03,29,10.90
2013,06,03,03,30,10.90
2013,06,03,03,31,10.90
2013,06,03,03,32,10.90
2013,06,03,03,33,10.90
2013,06,03,03,34,10.90
2013,06,03,03,35,10.90
2013,06,03,03,36,10.80
2013,06,03,03,37,10.70
2013,06,03,03,38,10.70
2013,06,03,03,39,10.70
2013,06,03,03,40,10.70
2013,06,03,03,41,10.70
2013,06,03,03,42,10.60
2013,06,03,03,43,10.60
2013,06,03,03,44,10.60
2013,06,03,03,45,10.60
2013,06,03,03,46,10.60
2013,06,03,03,47,10.40
2013,06,03,03,48,10.40
2013,06,03,03,49,10.40
2013,06,03,03,50,10.40
2013,06,03,03,51,10.40
2013,06,03,03,52,10.40
2013,06,03,03,53,10.40
2013,06,03,03,54,10.40
2013,06,03,03,55,10.40
2013,06,03,03,56,10.40
2013,06,03,03,57,10.40
2013,06,03,03,58,10.40
2013,06,03,03,59,10.40
2013,06,03,04,00,10.30
2013,06,03,04,01,10.30
2013,06,03,04,02,10.30
2013,06,03,04,03,10.30
2013,06,03,04,04,10.30
2013,06,03,04,05,10.30
2013,06,03,04,06,10.30
2013,06,03,04,07,10.30
2013,06,03,04,08,10.30
2013,06,03,04,09,10.40
2013,06,03,04,10,10.40
2013,06,03,04,11,10.40
2013,06,03,04,12,10.40
2013,06,03,04,13,10.40
2013,06,03,04,14,10.40
2013,06,03,04,15,10.40
2013,06,03,04,16,10.40
2013,06,03,04,17,10.30
2013,06,03,04,18,10.40
2013,06,03,04,19,10.40
2013,06,03,04,20,10.40
2013,06,03,04,21,10.40
2013,06,03,04,22,10.40
2013,06,03,04,23,10.30
2013,06,03,04,24,10.30
2013,06,03,04,25,10.30
2013,06,03,04,26,10.30
2013,06,03,04,27,10.20
2013,06,03,04,28,10.20
2013,06,03,04,29,10.20
2013,06,03,04,30,10.20
2013,06,03,04,31,10.20
2013,06,03,04,32,10.20
2013,06,03,04,33,10.20
2013,06,03,04,34,10.20
2013,06,03,04,35,10.20
2013,06,03,04,36,10.20
2013,06,03,04,37,10.20
2013,06,03,04,38,10.20
2013,06,03,04,39,10.20
2013,06,03,04,40,10.20
2013,06,03,04,41,10.20
2013,06,03,04,42,10.20
2013,06,03,04,43,10.20
